Highgate, VT

5:06 AM EST on December 08, 2019 (GMT -0500)
Franklin County State

Weather History for KFSO - June, 2019

Change the Weather History Date:

Wednesday, June 12, 2019

  Actual Average (KPBG) Record (KPBG)
Temperature  
Mean Temperature 62 °F -  
Max Temperature 79 °F 75 °F 94 °F (2017)
Min Temperature 46 °F 52 °F 41 °F (1966)
Degree Days  
Heating Degree Days 3    
Growing Degree Days 12 (Base 50)    
Moisture  
Dew Point 47 °F    
Average Humidity 59    
Maximum Humidity 96    
Minimum Humidity 28    
Precipitation  
Precipitation 0.00 in - - ()
Sea Level Pressure  
Sea Level Pressure 30.08 in    
Wind  
Wind Speed 2 mph (South)    
Max Wind Speed 9 mph    
Max Gust Speed 17 mph    
Visibility 10 miles    
Events      
Averages and records for this station are not official NWS values.
T = Trace of Precipitation, MM = Missing Value Source: NWS Daily Summary

Daily Weather History Graph

Daily Weather History Graph

Search for Another Location

Airport or City:

Astronomy

Jun. 12, 2019 Rise Set
Actual Time 5:05 AM EDT 8:39 PM EDT
Civil Twilight 4:28 AM EDT 9:16 PM EDT
Nautical Twilight 3:39 AM EDT 10:05 PM EDT
Astronomical Twilight 2:34 AM EDT 11:10 PM EDT
Moon 3:29 PM EDT (6/12) 2:34 AM EDT (6/12)
Length of Visible Light 16h 47m
Length of Day
15h 33m
Waxing Gibbous, 76% of the Moon is Illuminated
Jun 12
Waxing Gibbous
Jun 17
Full
Jun 25
Last Quarter
Jul 2
New
Jul 9
First Quarter

Hourly Weather History & Observations

Time (EDT) Temp. Dew Point Humidity Pressure Visibility Wind Dir Wind Speed Gust Speed Precip Events Conditions
12:15 AM 50.0 °F 48.6 °F 95% 30.04 in 10.0 mi Calm Calm - N/A   Clear
12:35 AM 50.0 °F 48.7 °F 95% 30.04 in 10.0 mi Calm Calm - N/A   Clear
12:55 AM 49.3 °F 48.0 °F 95% 30.04 in 10.0 mi Calm Calm - N/A   Clear
1:15 AM 50.0 °F 48.7 °F 95% 30.05 in 10.0 mi Calm Calm - N/A   Clear
1:36 AM 49.5 °F 48.4 °F 96% 30.05 in 7.0 mi Calm Calm - N/A   Clear
1:56 AM 47.7 °F 46.4 °F 95% 30.05 in 10.0 mi Calm Calm - N/A   Clear
2:15 AM 48.4 °F 46.9 °F 95% 30.05 in 10.0 mi Calm Calm - N/A   Clear
2:35 AM 49.6 °F 48.4 °F 95% 30.06 in 10.0 mi Calm Calm - N/A   Clear
2:55 AM 46.8 °F 45.5 °F 95% 30.07 in 10.0 mi Calm Calm - N/A   Clear
3:16 AM 48.9 °F 47.7 °F 95% 30.08 in 10.0 mi Calm Calm - N/A   Clear
3:36 AM 47.8 °F 46.8 °F 96% 30.08 in 10.0 mi Calm Calm - N/A   Clear
3:56 AM 50.9 °F 49.6 °F 95% 30.09 in 10.0 mi Calm Calm - N/A   Clear
4:15 AM 50.2 °F 48.9 °F 95% 30.09 in 10.0 mi Calm Calm - N/A   Clear
4:35 AM 47.5 °F 46.0 °F 95% 30.10 in 7.0 mi Calm Calm - N/A   Clear
4:56 AM 46.4 °F 45.1 °F 95% 30.11 in 10.0 mi Calm Calm - N/A   Clear
5:16 AM 50.2 °F 48.9 °F 95% 30.13 in 10.0 mi Calm Calm - N/A   Clear
5:35 AM 50.9 °F 49.6 °F 95% 30.13 in 10.0 mi Calm Calm - N/A   Clear
5:56 AM 48.2 °F 46.9 °F 95% 30.14 in 10.0 mi SSE 3.5 mph - N/A   Clear
6:15 AM 51.8 °F 50.4 °F 95% 30.15 in 10.0 mi South 3.5 mph - N/A   Clear
6:36 AM 53.6 °F 51.8 °F 94% 30.15 in 10.0 mi South 3.5 mph - N/A   Clear
6:55 AM 55.4 °F 52.0 °F 88% 30.15 in 10.0 mi South 3.5 mph - N/A   Clear
7:16 AM 56.8 °F 52.3 °F 85% 30.15 in 10.0 mi Calm Calm - N/A   Clear
7:35 AM 58.6 °F 52.7 °F 81% 30.15 in 10.0 mi South 3.5 mph - N/A   Clear
7:55 AM 59.9 °F 51.4 °F 74% 30.15 in 10.0 mi South 3.5 mph - N/A   Clear
8:16 AM 61.5 °F 52.3 °F 72% 30.15 in 10.0 mi South 4.6 mph - N/A   Clear
8:35 AM 62.4 °F 51.4 °F 67% 30.15 in 10.0 mi SSW 4.6 mph - N/A   Clear
8:55 AM 63.5 °F 51.4 °F 65% 30.16 in 10.0 mi South 4.6 mph - N/A   Clear
9:16 AM 63.7 °F 52.0 °F 66% 30.15 in 10.0 mi SW 3.5 mph - N/A   Clear
9:36 AM 64.9 °F 49.5 °F 57% 30.15 in 10.0 mi Calm Calm - N/A   Clear
9:55 AM 66.0 °F 48.6 °F 53% 30.14 in 10.0 mi Calm Calm - N/A   Clear
10:16 AM 67.3 °F 50.0 °F 54% 30.15 in 10.0 mi South 3.5 mph - N/A   Clear
10:55 AM 68.9 °F 50.5 °F 52% 30.15 in 10.0 mi South 4.6 mph - N/A   Clear
11:15 AM 69.1 °F 49.5 °F 50% 30.15 in 10.0 mi South 5.8 mph - N/A   Clear
11:36 AM 70.0 °F 45.3 °F 41% 30.15 in 10.0 mi South 5.8 mph - N/A   Clear
11:56 AM 70.5 °F 43.0 °F 37% 30.14 in 10.0 mi South 3.5 mph - N/A   Clear
12:15 PM 72.0 °F 46.0 °F 40% 30.13 in 10.0 mi Calm Calm - N/A   Clear
12:35 PM 72.5 °F 42.6 °F 34% 30.13 in 10.0 mi Calm Calm - N/A   Clear
12:55 PM 73.6 °F 44.6 °F 35% 30.13 in 10.0 mi SE 8.1 mph - N/A   Clear
1:16 PM 74.7 °F 39.7 °F 28% 30.12 in 10.0 mi SSE 6.9 mph - N/A   Clear
1:36 PM 75.2 °F 41.5 °F 30% 30.12 in 10.0 mi South 6.9 mph - N/A   Clear
1:56 PM 76.3 °F 43.5 °F 31% 30.11 in 10.0 mi South 4.6 mph - N/A   Clear
2:15 PM 76.1 °F 43.7 °F 31% 30.11 in 10.0 mi SSE 8.1 mph - N/A   Clear
2:56 PM 76.5 °F 43.5 °F 31% 30.09 in 10.0 mi South 8.1 mph - N/A   Clear
3:15 PM 77.2 °F 43.2 °F 30% 30.08 in 10.0 mi South 6.9 mph - N/A   Clear
3:36 PM 78.3 °F 42.8 °F 28% 30.08 in 10.0 mi South 5.8 mph 17.3 mph N/A   Clear
3:55 PM 78.3 °F 43.0 °F 28% 30.07 in 10.0 mi SSE 8.1 mph - N/A   Clear
4:15 PM 78.3 °F 43.7 °F 29% 30.06 in 10.0 mi South 6.9 mph - N/A   Clear
4:36 PM 78.1 °F 43.2 °F 29% 30.05 in 10.0 mi South 6.9 mph - N/A   Clear
4:55 PM 77.9 °F 44.8 °F 31% 30.05 in 10.0 mi SSE 5.8 mph - N/A   Clear
5:16 PM 77.2 °F 45.1 °F 32% 30.04 in 10.0 mi South 3.5 mph - N/A   Clear
5:36 PM 78.8 °F 46.2 °F 32% 30.03 in 10.0 mi South 5.8 mph - N/A   Clear
5:56 PM 78.8 °F 45.9 °F 31% 30.03 in 10.0 mi South 9.2 mph - N/A   Clear
6:15 PM 78.1 °F 44.1 °F 30% 30.03 in 10.0 mi SSE 8.1 mph - N/A   Clear
6:36 PM 78.3 °F 44.6 °F 30% 30.02 in 10.0 mi South 8.1 mph - N/A   Clear
6:55 PM 77.7 °F 42.6 °F 29% 30.02 in 7.0 mi South 5.8 mph - N/A   Clear
7:15 PM 76.8 °F 43.0 °F 30% 30.03 in 10.0 mi South 3.5 mph - N/A   Clear
7:36 PM 75.4 °F 42.8 °F 31% 30.03 in 10.0 mi South 5.8 mph - N/A   Clear
7:55 PM 74.5 °F 42.6 °F 32% 30.03 in 5.0 mi South 4.6 mph - N/A   Haze
8:15 PM 72.1 °F 42.6 °F 34% 30.03 in 10.0 mi South 4.6 mph - N/A   Clear
8:35 PM 71.2 °F 42.3 °F 35% 30.03 in 10.0 mi South 4.6 mph - N/A   Clear
8:56 PM 70.0 °F 43.2 °F 38% 30.03 in 10.0 mi South 6.9 mph - N/A   Clear
9:15 PM 69.3 °F 45.3 °F 42% 30.02 in 10.0 mi SSE 4.6 mph - N/A   Clear
9:36 PM 66.2 °F 46.8 °F 50% 30.02 in 10.0 mi SSE 3.5 mph - N/A   Clear
9:56 PM 64.0 °F 46.9 °F 54% 30.03 in 10.0 mi SSE 4.6 mph - N/A   Clear
10:15 PM 65.1 °F 45.3 °F 49% 30.03 in 10.0 mi SSE 4.6 mph - N/A   Clear
10:36 PM 63.1 °F 46.6 °F 55% 30.03 in 10.0 mi ESE 3.5 mph - N/A   Clear
10:55 PM 63.3 °F 46.6 °F 54% 30.03 in 10.0 mi SSE 6.9 mph - N/A   Clear
11:16 PM 65.3 °F 47.5 °F 52% 30.02 in 10.0 mi SSE 6.9 mph - N/A   Clear
11:36 PM 66.4 °F 47.7 °F 51% 30.03 in 10.0 mi SSE 6.9 mph - N/A   Clear
11:56 PM 66.9 °F 47.7 °F 50% 30.03 in 10.0 mi SSE 6.9 mph - N/A   Clear